| time (UTC) | temp C | wind direction | speed KPH | gust KPH | rain 1hr cm | rain 24hr cm | rain mn cm | humidity % | barometer mb |
| 20260507192543 | 12 | 293 | 11.3 | 20.9 | 0.00 | 0.86 | 0.00 | 37 | 1004.4 |
| 20260507192049 | 12 | 343 | 9.7 | 22.5 | 0.00 | 0.86 | 0.00 | 38 | 1004.5 |
| 20260507191555 | 13 | 349 | 11.3 | 22.5 | 0.00 | 0.86 | 0.00 | 38 | 1004.5 |
| 20260507191045 | 13 | 323 | 8.0 | 20.9 | 0.00 | 0.86 | 0.00 | 41 | 1004.5 |
| 20260507190545 | 13 | 331 | 12.9 | 20.9 | 0.00 | 0.86 | 0.00 | 39 | 1004.6 |
| 20260507190055 | 12 | 334 | 8.0 | 24.1 | 0.00 | 0.86 | 0.00 | 40 | 1004.7 |
| 20260507185545 | 13 | 213 | 8.0 | 24.1 | 0.00 | 1.02 | 0.00 | 40 | 1004.7 |
| 20260507185045 | 13 | 304 | 9.7 | 22.5 | 0.00 | 1.02 | 0.00 | 40 | 1004.7 |
| 20260507184552 | 13 | 306 | 11.3 | 24.1 | 0.00 | 1.02 | 0.00 | 37 | 1004.7 |
| 20260507184045 | 13 | 312 | 12.9 | 24.1 | 0.00 | 1.02 | 0.00 | 39 | 1004.7 |
| 20260507183544 | 13 | 291 | 12.9 | 22.5 | 0.00 | 1.02 | 0.00 | 37 | 1004.8 |
| 20260507183054 | 13 | 307 | 6.4 | 20.9 | 0.00 | 1.02 | 0.00 | 39 | 1004.7 |
| 20260507182546 | 12 | 266 | 12.9 | 24.1 | 0.00 | 1.02 | 0.00 | 39 | 1004.8 |
| 20260507182044 | 12 | 284 | 9.7 | 24.1 | 0.00 | 1.02 | 0.00 | 39 | 1004.8 |
| 20260507181602 | 12 | 255 | 9.7 | 27.4 | 0.00 | 1.02 | 0.00 | 39 | 1004.7 |
| 20260507181042 | 12 | 278 | 9.7 | 27.4 | 0.00 | 1.02 | 0.00 | 38 | 1004.8 |
| 20260507180543 | 12 | 270 | 9.7 | 22.5 | 0.00 | 1.02 | 0.00 | 39 | 1004.9 |
| 20260507180053 | 13 | 278 | 11.3 | 22.5 | 0.00 | 1.02 | 0.00 | 39 | 1005.0 |
| 20260507175545 | 13 | 5 | 11.3 | 22.5 | 0.00 | 1.24 | 0.00 | 38 | 1004.9 |
| 20260507175042 | 14 | 274 | 8.0 | 33.8 | 0.00 | 1.24 | 0.00 | 40 | 1005.0 |
| 20260507174555 | 13 | 282 | 11.3 | 33.8 | 0.00 | 1.24 | 0.00 | 40 | 1004.8 |
| 20260507174044 | 13 | 269 | 9.7 | 27.4 | 0.00 | 1.24 | 0.00 | 41 | 1004.9 |
| 20260507173543 | 14 | 288 | 9.7 | 27.4 | 0.00 | 1.24 | 0.00 | 41 | 1004.9 |
| 20260507173050 | 13 | 320 | 6.4 | 22.5 | 0.00 | 1.24 | 0.00 | 41 | 1004.9 |
| 20260507172542 | 13 | 277 | 8.0 | 25.7 | 0.00 | 1.24 | 0.00 | 40 | 1005.0 |
| 20260507172042 | 12 | 307 | 16.1 | 25.7 | 0.00 | 1.24 | 0.00 | 41 | 1005.0 |
| 20260507171555 | 13 | 293 | 11.3 | 25.7 | 0.00 | 1.24 | 0.00 | 40 | 1005.0 |
| 20260507171043 | 13 | 277 | 11.3 | 24.1 | 0.00 | 1.24 | 0.00 | 41 | 1005.2 |
| 20260507170543 | 13 | 313 | 9.7 | 25.7 | 0.00 | 1.24 | 0.00 | 43 | 1005.2 |
| 20260507170054 | 12 | 313 | 12.9 | 25.7 | 0.00 | 1.24 | 0.00 | 40 | 1005.1 |
| 20260507165542 | 13 | 309 | 9.7 | 25.7 | 0.00 | 1.32 | 0.00 | 45 | 1005.3 |
| 20260507165042 | 12 | 332 | 16.1 | 32.2 | 0.00 | 1.32 | 0.00 | 43 | 1005.3 |
| 20260507164553 | 12 | 295 | 11.3 | 32.2 | 0.00 | 1.32 | 0.00 | 45 | 1005.3 |
| 20260507164049 | 12 | 320 | 16.1 | 27.4 | 0.00 | 1.32 | 0.00 | 43 | 1005.4 |
| 20260507163544 | 12 | 321 | 9.7 | 27.4 | 0.00 | 1.32 | 0.00 | 49 | 1005.3 |
| 20260507163057 | 12 | 301 | 12.9 | 27.4 | 0.00 | 1.32 | 0.00 | 48 | 1005.6 |
| 20260507162542 | 11 | 306 | 16.1 | 27.4 | 0.00 | 1.32 | 0.00 | 49 | 1005.5 |
| 20260507162044 | 11 | 249 | 12.9 | 25.7 | 0.00 | 1.32 | 0.00 | 54 | 1005.7 |
| 20260507161550 | 11 | 314 | 8.0 | 25.7 | 0.00 | 1.32 | 0.00 | 53 | 1005.7 |
| 20260507161042 | 11 | 316 | 12.9 | 25.7 | 0.00 | 1.32 | 0.00 | 53 | 1005.8 |
| 20260507160542 | 11 | 300 | 6.4 | 14.5 | 0.00 | 1.32 | 0.00 | 59 | 1005.9 |
| 20260507160055 | 10 | 310 | 6.4 | 16.1 | 0.00 | 1.32 | 0.00 | 62 | 1006.1 |
| 20260507155543 | 10 | 307 | 8.0 | 24.1 | 0.00 | 1.32 | 0.00 | 61 | 1006.1 |
| 20260507155042 | 10 | 328 | 9.7 | 24.1 | 0.00 | 1.32 | 0.00 | 59 | 1006.1 |
| 20260507154559 | 10 | 326 | 8.0 | 22.5 | 0.00 | 1.32 | 0.00 | 59 | 1006.1 |
| 20260507154043 | 11 | 330 | 9.7 | 22.5 | 0.00 | 1.32 | 0.00 | 58 | 1006.1 |
| 20260507153542 | 11 | 314 | 8.0 | 16.1 | 0.00 | 1.32 | 0.00 | 64 | 1006.1 |
| 20260507153058 | 10 | 307 | 6.4 | 14.5 | 0.00 | 1.32 | 0.00 | 71 | 1006.1 |
| 20260507152543 | 9 | 293 | 3.2 | 14.5 | 0.00 | 1.32 | 0.00 | 72 | 1006.2 |
| 20260507152041 | 8 | 302 | 4.8 | 16.1 | 0.00 | 1.32 | 0.00 | 76 | 1006.4 |
| 20260507151550 | 8 | 289 | 3.2 | 17.7 | 0.00 | 1.32 | 0.00 | 77 | 1006.5 |
| 20260507151043 | 9 | 311 | 8.0 | 24.1 | 0.00 | 1.32 | 0.00 | 73 | 1006.5 |
| 20260507150543 | 9 | 335 | 11.3 | 24.1 | 0.00 | 1.32 | 0.00 | 70 | 1006.5 |
| 20260507150050 | 9 | 343 | 12.9 | 22.5 | 0.00 | 1.32 | 0.00 | 68 | 1006.5 |
| 20260507145548 | 10 | 338 | 12.9 | 22.5 | 0.00 | 1.32 | 0.00 | 66 | 1006.4 |
| 20260507145042 | 10 | 330 | 8.0 | 19.3 | 0.00 | 1.32 | 0.00 | 68 | 1006.3 |
| 20260507144553 | 10 | 317 | 9.7 | 19.3 | 0.00 | 1.32 | 0.00 | 67 | 1006.3 |
| 20260507144043 | 10 | 295 | 6.4 | 12.9 | 0.00 | 1.32 | 0.00 | 66 | 1006.4 |
| 20260507143542 | 10 | 2 | 3.2 | 12.9 | 0.00 | 1.32 | 0.00 | 68 | 1006.2 |
| 20260507143050 | 10 | 304 | 1.6 | 9.7 | 0.00 | 1.32 | 0.00 | 71 | 1006.2 |
| 20260507142545 | 9 | 293 | 3.2 | 9.7 | 0.00 | 1.32 | 0.00 | 70 | 1006.3 |
| 20260507142045 | 9 | 328 | 3.2 | 8.0 | 0.00 | 1.32 | 0.00 | 72 | 1006.4 |
| 20260507141555 | 9 | 331 | 3.2 | 6.4 | 0.00 | 1.32 | 0.00 | 75 | 1006.5 |
| 20260507141045 | 9 | 310 | 3.2 | 9.7 | 0.00 | 1.32 | 0.00 | 75 | 1006.4 |
| 20260507140545 | 8 | 319 | 3.2 | 9.7 | 0.00 | 1.32 | 0.00 | 75 | 1006.4 |
| 20260507140052 | 8 | 304 | 4.8 | 9.7 | 0.00 | 1.32 | 0.00 | 76 | 1006.5 |
| 20260507135545 | 8 | 322 | 3.2 | 11.3 | 0.00 | 1.32 | 0.00 | 77 | 1006.4 |
| 20260507135045 | 8 | 276 | 4.8 | 11.3 | 0.00 | 1.32 | 0.00 | 76 | 1006.4 |
| 20260507134555 | 8 | 313 | 4.8 | 17.7 | 0.00 | 1.32 | 0.00 | 76 | 1006.4 |
| 20260507134042 | 8 | 307 | 6.4 | 17.7 | 0.00 | 1.32 | 0.00 | 77 | 1006.5 |
| 20260507133543 | 8 | 284 | 9.7 | 17.7 | 0.00 | 1.32 | 0.00 | 76 | 1006.6 |
| 20260507133056 | 8 | 302 | 4.8 | 16.1 | 0.00 | 1.32 | 0.00 | 78 | 1006.6 |
| 20260507132541 | 8 | 331 | 8.0 | 14.5 | 0.00 | 1.32 | 0.00 | 79 | 1006.8 |
| 20260507132048 | 8 | 330 | 6.4 | 12.9 | 0.00 | 1.32 | 0.00 | 79 | 1006.7 |
| 20260507131602 | 8 | 292 | 6.4 | 17.7 | 0.00 | 1.32 | 0.00 | 79 | 1006.8 |
| 20260507131045 | 8 | 325 | 4.8 | 17.7 | 0.00 | 1.32 | 0.00 | 79 | 1006.7 |
| 20260507130544 | 8 | 320 | 9.7 | 17.7 | 0.00 | 1.32 | 0.00 | 79 | 1006.8 |
| 20260507130109 | 8 | 316 | 11.3 | 17.7 | 0.00 | 1.32 | 0.00 | 79 | 1006.8 |
| 20260507125545 | 8 | 341 | 6.4 | 14.5 | 0.00 | 1.32 | 0.00 | 79 | 1006.8 |
| 20260507125042 | 8 | 323 | 9.7 | 14.5 | 0.00 | 1.32 | 0.00 | 77 | 1006.8 |
| 20260507124554 | 9 | 323 | 6.4 | 14.5 | 0.00 | 1.32 | 0.00 | 78 | 1006.8 |
| 20260507124045 | 9 | 308 | 6.4 | 14.5 | 0.00 | 1.32 | 0.00 | 78 | 1006.6 |
| 20260507123545 | 8 | 0 | 0.0 | 6.4 | 0.00 | 1.32 | 0.00 | 82 | 1006.5 |
| 20260507123052 | 8 | 11 | 1.6 | 6.4 | 0.00 | 1.32 | 0.00 | 83 | 1006.6 |
| 20260507122545 | 8 | 63 | 1.6 | 6.4 | 0.00 | 1.32 | 0.00 | 83 | 1006.5 |
| 20260507122042 | 8 | 324 | 0.0 | 4.8 | 0.00 | 1.32 | 0.00 | 85 | 1006.5 |
| 20260507121604 | 7 | 0 | 3.2 | 6.4 | 0.00 | 1.32 | 0.00 | 84 | 1006.5 |
| 20260507121044 | 7 | 347 | 1.6 | 6.4 | 0.00 | 1.32 | 0.00 | 86 | 1006.6 |
| 20260507120545 | 7 | 333 | 3.2 | 6.4 | 0.00 | 1.32 | 0.00 | 85 | 1006.7 |
| 20260507120100 | 7 | 329 | 3.2 | 6.4 | 0.00 | 1.32 | 0.00 | 87 | 1006.8 |
| 20260507115545 | 7 | 18 | 4.8 | 6.4 | 0.00 | 1.32 | 0.00 | 87 | 1006.8 |
| 20260507115045 | 7 | 300 | 1.6 | 6.4 | 0.00 | 1.32 | 0.00 | 89 | 1006.9 |
| 20260507114604 | 7 | 308 | 1.6 | 6.4 | 0.00 | 1.32 | 0.00 | 89 | 1006.8 |
| 20260507114045 | 6 | 321 | 3.2 | 6.4 | 0.00 | 1.32 | 0.00 | 89 | 1006.9 |
| 20260507113542 | 6 | 316 | 1.6 | 4.8 | 0.00 | 1.32 | 0.00 | 90 | 1006.8 |
| 20260507113052 | 6 | 352 | 1.6 | 4.8 | 0.00 | 1.32 | 0.00 | 90 | 1006.7 |
| 20260507112544 | 6 | 0 | 0.0 | 4.8 | 0.00 | 1.32 | 0.00 | 92 | 1006.7 |
| 20260507112041 | 6 | 38 | 1.6 | 4.8 | 0.00 | 1.32 | 0.00 | 92 | 1006.7 |
| 20260507111556 | 6 | 338 | 1.6 | 4.8 | 0.00 | 1.32 | 0.00 | 92 | 1006.6 |
| 20260507111041 | 6 | 308 | 0.0 | 4.8 | 0.00 | 1.32 | 0.00 | 92 | 1006.7 |
| 20260507110542 | 5 | 0 | 0.0 | 1.6 | 0.00 | 1.32 | 0.00 | 93 | 1006.7 |
| 20260507110054 | 5 | 297 | 0.0 | 1.6 | 0.00 | 1.32 | 0.00 | 94 | 1006.6 |
| 20260507105541 | 5 | 64 | 0.0 | 1.6 | 0.00 | 1.32 | 0.00 | 95 | 1006.7 |
| 20260507105042 | 5 | 0 | 0.0 | 1.6 | 0.00 | 1.32 | 0.00 | 95 | 1006.8 |
| 20260507104552 | 5 | 305 | 0.0 | 1.6 | 0.00 | 1.32 | 0.00 | 95 | 1006.8 |
| 20260507104041 | 5 | 0 | 0.0 | 1.6 | 0.00 | 1.32 | 0.00 | 95 | 1006.7 |
| 20260507103542 | 4 | 305 | 0.0 | 1.6 | 0.00 | 1.32 | 0.00 | 96 | 1006.5 |
| 20260507103047 | 4 | 0 | 0.0 | 0.0 | 0.00 | 1.32 | 0.00 | 96 | 1006.2 |
| 20260507102542 | 4 | 0 | 0.0 | 0.0 | 0.00 | 1.32 | 0.00 | 96 | 1006.2 |
| 20260507102042 | 4 | 0 | 0.0 | 0.0 | 0.00 | 1.32 | 0.00 | 96 | 1006.3 |
| 20260507101602 | 4 | 0 | 0.0 | 1.6 | 0.00 | 1.32 | 0.00 | 96 | 1006.4 |
| 20260507101041 | 4 | 0 | 0.0 | 1.6 | 0.00 | 1.32 | 0.00 | 95 | 1006.3 |
| 20260507100542 | 4 | 0 | 0.0 | 3.2 | 0.00 | 1.32 | 0.00 | 95 | 1006.4 |
| 20260507100053 | 5 | 0 | 0.0 | 3.2 | 0.00 | 1.32 | 0.00 | 96 | 1006.4 |
| 20260507095542 | 5 | 266 | 0.0 | 4.8 | 0.00 | 1.32 | 0.00 | 96 | 1006.4 |
| 20260507095041 | 5 | 329 | 0.0 | 4.8 | 0.00 | 1.32 | 0.00 | 96 | 1006.3 |
| 20260507094554 | 5 | 37 | 1.6 | 4.8 | 0.00 | 1.32 | 0.00 | 97 | 1006.3 |
| 20260507094041 | 5 | 0 | 0.0 | 3.2 | 0.00 | 1.32 | 0.00 | 97 | 1006.4 |
| 20260507093543 | 5 | 0 | 0.0 | 3.2 | 0.00 | 1.32 | 0.00 | 97 | 1006.6 |
| 20260507093056 | 5 | 61 | 0.0 | 6.4 | 0.00 | 1.32 | 0.00 | 97 | 1006.8 |
| 20260507092542 | 5 | 333 | 1.6 | 6.4 | 0.00 | 1.32 | 0.00 | 97 | 1006.7 |
| 20260507092042 | 5 | 303 | 0.0 | 4.8 | 0.00 | 1.32 | 0.00 | 97 | 1006.5 |
| 20260507091552 | 5 | 0 | 0.0 | 6.4 | 0.00 | 1.32 | 0.00 | 97 | 1006.4 |
| 20260507091045 | 5 | 328 | 0.0 | 6.4 | 0.00 | 1.32 | 0.00 | 97 | 1006.2 |
| 20260507090542 | 5 | 0 | 1.6 | 6.4 | 0.00 | 1.32 | 0.00 | 97 | 1006.4 |
| 20260507090052 | 5 | 306 | 3.2 | 6.4 | 0.00 | 1.32 | 0.00 | 97 | 1006.4 |
| 20260507085542 | 5 | 25 | 0.0 | 6.4 | 0.00 | 1.32 | 0.00 | 97 | 1006.4 |
| 20260507085042 | 5 | 6 | 1.6 | 8.0 | 0.00 | 1.32 | 0.00 | 97 | 1006.7 |
| 20260507084555 | 5 | 326 | 3.2 | 8.0 | 0.00 | 1.32 | 0.00 | 97 | 1006.5 |
| 20260507084044 | 5 | 0 | 1.6 | 8.0 | 0.00 | 1.32 | 0.00 | 97 | 1006.2 |
| 20260507083542 | 5 | 341 | 1.6 | 8.0 | 0.00 | 1.32 | 0.00 | 97 | 1006.1 |
| 20260507083052 | 5 | 0 | 1.6 | 8.0 | 0.00 | 1.32 | 0.00 | 97 | 1006.1 |
| 20260507082544 | 5 | 0 | 0.0 | 3.2 | 0.00 | 1.32 | 0.00 | 97 | 1005.9 |
| 20260507082049 | 5 | 0 | 0.0 | 3.2 | 0.00 | 1.32 | 0.00 | 97 | 1006.1 |
| 20260507081603 | 5 | 0 | 0.0 | 1.6 | 0.00 | 1.32 | 0.00 | 97 | 1006.3 |
| 20260507081045 | 5 | 0 | 0.0 | 1.6 | 0.00 | 1.32 | 0.00 | 97 | 1006.2 |
| 20260507080548 | 5 | 0 | 0.0 | 1.6 | 0.00 | 1.32 | 0.00 | 97 | 1006.2 |
| 20260507080100 | 5 | 89 | 0.0 | 0.0 | 0.00 | 1.32 | 0.00 | 97 | 1006.1 |
| 20260507075545 | 5 | 0 | 0.0 | 1.6 | 0.00 | 1.32 | 0.00 | 97 | 1006.4 |
| 20260507075045 | 5 | 0 | 0.0 | 3.2 | 0.00 | 1.32 | 0.00 | 97 | 1006.2 |
| 20260507074601 | 5 | 0 | 0.0 | 4.8 | 0.00 | 1.32 | 0.00 | 97 | 1006.0 |
| 20260507074045 | 6 | 0 | 0.0 | 4.8 | 0.00 | 1.32 | 0.00 | 97 | 1005.9 |
| 20260507073549 | 6 | 27 | 1.6 | 9.7 | 0.00 | 1.32 | 0.00 | 97 | 1005.7 |
| 20260507073050 | 6 | 0 | 1.6 | 11.3 | 0.00 | 1.32 | 0.00 | 97 | 1005.6 |
| 20260507072545 | 6 | 301 | 3.2 | 11.3 | 0.00 | 1.32 | 0.00 | 97 | 1005.5 |
| 20260507072042 | 6 | 310 | 4.8 | 9.7 | 0.00 | 1.32 | 0.00 | 97 | 1005.4 |
| 20260507071556 | 6 | 294 | 1.6 | 9.7 | 0.00 | 1.32 | 0.00 | 97 | 1005.5 |
| 20260507071043 | 6 | 321 | 4.8 | 14.5 | 0.00 | 1.32 | 0.00 | 97 | 1005.6 |
| 20260507070546 | 6 | 321 | 6.4 | 14.5 | 0.00 | 1.32 | 0.00 | 97 | 1005.4 |
| 20260507070054 | 6 | 269 | 3.2 | 8.0 | 0.00 | 1.32 | 0.00 | 97 | 1005.6 |
| 20260507065545 | 6 | 312 | 3.2 | 12.9 | 0.00 | 1.32 | 0.00 | 97 | 1005.7 |
| 20260507065045 | 6 | 322 | 4.8 | 12.9 | 0.00 | 1.32 | 0.00 | 97 | 1005.8 |
| 20260507064551 | 6 | 279 | 4.8 | 11.3 | 0.00 | 1.32 | 0.00 | 97 | 1005.6 |
| 20260507064042 | 6 | 313 | 4.8 | 14.5 | 0.00 | 1.32 | 0.00 | 97 | 1005.5 |
| 20260507063547 | 6 | 320 | 4.8 | 17.7 | 0.00 | 1.32 | 0.00 | 97 | 1005.7 |
| 20260507063058 | 6 | 301 | 8.0 | 17.7 | 0.00 | 1.32 | 0.00 | 97 | 1005.8 |
| 20260507062545 | 6 | 323 | 9.7 | 17.7 | 0.00 | 1.32 | 0.00 | 97 | 1005.6 |
| 20260507062048 | 6 | 350 | 11.3 | 19.3 | 0.00 | 1.32 | 0.00 | 97 | 1005.3 |
| 20260507061552 | 6 | 304 | 9.7 | 19.3 | 0.00 | 1.32 | 0.00 | 97 | 1005.6 |
| 20260507061044 | 6 | 321 | 9.7 | 17.7 | 0.00 | 1.32 | 0.00 | 97 | 1005.6 |
| 20260507060545 | 6 | 318 | 6.4 | 12.9 | 0.00 | 1.32 | 0.00 | 98 | 1005.8 |
| 20260507060050 | 6 | 71 | 1.6 | 4.8 | 0.00 | 1.32 | 0.00 | 98 | 1005.7 |
| 20260507055546 | 6 | 333 | 1.6 | 3.2 | 0.00 | 1.32 | 0.00 | 98 | 1005.9 |
| 20260507055049 | 6 | 0 | 0.0 | 3.2 | 0.00 | 1.32 | 0.00 | 98 | 1005.8 |
| 20260507054633 | 6 | 0 | 0.0 | 4.8 | 0.00 | 1.32 | 0.00 | 97 | 1005.7 |
| 20260507054046 | 6 | 302 | 1.6 | 8.0 | 0.00 | 1.32 | 0.00 | 97 | 1005.6 |
| 20260507053550 | 6 | 289 | 1.6 | 8.0 | 0.00 | 1.32 | 0.00 | 97 | 1005.6 |
| 20260507053053 | 6 | 9 | 3.2 | 6.4 | 0.00 | 1.32 | 0.00 | 97 | 1005.9 |
| 20260507052545 | 6 | 295 | 0.0 | 4.8 | 0.00 | 1.32 | 0.00 | 97 | 1005.9 |
| 20260507052046 | 6 | 254 | 1.6 | 4.8 | 0.00 | 1.32 | 0.00 | 97 | 1005.9 |
| 20260507051552 | 6 | 0 | 0.0 | 6.4 | 0.00 | 1.32 | 0.00 | 97 | 1005.8 |
| 20260507051050 | 6 | 122 | 0.0 | 11.3 | 0.00 | 1.32 | 0.00 | 97 | 1005.7 |
| 20260507050545 | 6 | 298 | 0.0 | 11.3 | 0.00 | 1.32 | 0.00 | 97 | 1005.8 |
| 20260507050059 | 6 | 321 | 1.6 | 8.0 | 0.00 | 1.32 | 0.00 | 97 | 1005.6 |
| 20260507045545 | 6 | 316 | 3.2 | 8.0 | 0.00 | 1.32 | 0.00 | 97 | 1005.7 |
| 20260507045045 | 6 | 335 | 0.0 | 6.4 | 0.00 | 1.32 | 0.00 | 97 | 1005.6 |
| 20260507044553 | 6 | 297 | 1.6 | 6.4 | 0.00 | 1.32 | 0.00 | 97 | 1005.5 |
| 20260507044048 | 6 | 0 | 0.0 | 3.2 | 0.00 | 1.32 | 0.00 | 97 | 1005.5 |
| 20260507043545 | 6 | 0 | 0.0 | 3.2 | 0.00 | 1.32 | 0.00 | 97 | 1005.5 |
| 20260507043049 | 6 | 290 | 0.0 | 9.7 | 0.00 | 1.32 | 0.00 | 97 | 1005.2 |
| 20260507042545 | 6 | 40 | 1.6 | 9.7 | 0.00 | 1.32 | 0.00 | 97 | 1005.3 |
| 20260507042046 | 6 | 331 | 3.2 | 14.5 | 0.00 | 1.32 | 0.00 | 97 | 1005.2 |
| 20260507041601 | 6 | 336 | 6.4 | 14.5 | 0.03 | 1.32 | 0.00 | 97 | 1005.1 |
| 20260507041046 | 6 | 316 | 6.4 | 14.5 | 0.03 | 1.32 | 0.00 | 97 | 1005.0 |
| 20260507040546 | 6 | 310 | 4.8 | 12.9 | 0.03 | 1.32 | 0.00 | 97 | 1005.0 |
| 20260507040054 | 7 | 354 | 6.4 | 14.5 | 0.05 | 1.32 | 0.00 | 97 | 1005.2 |
| 20260507035545 | 7 | 341 | 8.0 | 14.5 | 0.05 | 1.32 | 1.32 | 97 | 1005.3 |
| 20260507035045 | 7 | 303 | 6.4 | 12.9 | 0.05 | 1.32 | 1.32 | 97 | 1005.4 |
| 20260507034557 | 7 | 311 | 6.4 | 16.1 | 0.05 | 1.32 | 1.32 | 97 | 1005.5 |
| 20260507034045 | 7 | 272 | 6.4 | 16.1 | 0.05 | 1.32 | 1.32 | 97 | 1005.8 |
| 20260507033549 | 7 | 311 | 6.4 | 14.5 | 0.05 | 1.32 | 1.32 | 97 | 1005.6 |
| 20260507033056 | 7 | 309 | 6.4 | 14.5 | 0.05 | 1.32 | 1.32 | 97 | 1005.6 |
| 20260507032544 | 7 | 310 | 4.8 | 17.7 | 0.05 | 1.32 | 1.32 | 97 | 1005.6 |
| 20260507032048 | 7 | 27 | 6.4 | 17.7 | 0.05 | 1.32 | 1.32 | 97 | 1005.3 |
| 20260507031606 | 7 | 11 | 4.8 | 11.3 | 0.03 | 1.30 | 1.30 | 97 | 1005.1 |
| 20260507031048 | 7 | 51 | 1.6 | 9.7 | 0.05 | 1.30 | 1.30 | 97 | 1005.1 |
| 20260507030546 | 7 | 311 | 1.6 | 11.3 | 0.05 | 1.30 | 1.30 | 97 | 1005.3 |
| 20260507030056 | 7 | 290 | 4.8 | 11.3 | 0.03 | 1.27 | 1.27 | 97 | 1005.1 |
| 20260507025545 | 7 | 319 | 4.8 | 14.5 | 0.03 | 1.27 | 1.27 | 97 | 1005.3 |
| 20260507025045 | 7 | 332 | 3.2 | 17.7 | 0.03 | 1.27 | 1.27 | 97 | 1005.5 |
| 20260507024554 | 7 | 294 | 8.0 | 17.7 | 0.03 | 1.27 | 1.27 | 97 | 1005.4 |
| 20260507024044 | 7 | 284 | 6.4 | 16.1 | 0.03 | 1.27 | 1.27 | 97 | 1005.3 |
| 20260507023545 | 7 | 305 | 6.4 | 12.9 | 0.03 | 1.27 | 1.27 | 97 | 1005.4 |
| 20260507023103 | 7 | 330 | 3.2 | 12.9 | 0.05 | 1.27 | 1.27 | 97 | 1005.4 |
| 20260507022546 | 7 | 312 | 1.6 | 16.1 | 0.05 | 1.27 | 1.27 | 97 | 1005.3 |
| 20260507022044 | 7 | 357 | 1.6 | 16.1 | 0.08 | 1.27 | 1.27 | 97 | 1005.3 |
| 20260507021554 | 7 | 321 | 1.6 | 12.9 | 0.08 | 1.27 | 1.27 | 97 | 1005.4 |
| 20260507021041 | 7 | 0 | 3.2 | 12.9 | 0.05 | 1.24 | 1.24 | 97 | 1005.2 |
| 20260507020544 | 7 | 3 | 6.4 | 12.9 | 0.08 | 1.24 | 1.24 | 97 | 1005.3 |
| 20260507020100 | 7 | 335 | 1.6 | 16.1 | 0.08 | 1.24 | 1.24 | 97 | 1005.2 |
| 20260507015541 | 7 | 275 | 6.4 | 16.1 | 0.08 | 1.24 | 1.24 | 97 | 1005.3 |
| 20260507015041 | 8 | 290 | 8.0 | 16.1 | 0.08 | 1.24 | 1.24 | 97 | 1005.1 |
| 20260507014600 | 8 | 337 | 1.6 | 9.7 | 0.08 | 1.24 | 1.24 | 97 | 1005.3 |
| 20260507014043 | 8 | 0 | 1.6 | 16.1 | 0.08 | 1.24 | 1.24 | 96 | 1005.1 |
| 20260507013541 | 8 | 359 | 4.8 | 16.1 | 0.08 | 1.24 | 1.24 | 96 | 1005.1 |
| 20260507013050 | 8 | 327 | 8.0 | 16.1 | 0.05 | 1.22 | 1.22 | 96 | 1005.1 |
| 20260507012542 | 8 | 298 | 4.8 | 14.5 | 0.05 | 1.22 | 1.22 | 96 | 1004.9 |
| 20260507012042 | 8 | 41 | 6.4 | 24.1 | 0.03 | 1.19 | 1.19 | 96 | 1004.6 |
| 20260507011552 | 8 | 302 | 8.0 | 24.1 | 0.03 | 1.19 | 1.19 | 96 | 1004.7 |
| 20260507011042 | 8 | 297 | 6.4 | 16.1 | 0.03 | 1.19 | 1.19 | 96 | 1004.6 |
| 20260507010542 | 9 | 335 | 6.4 | 16.1 | 0.00 | 1.17 | 1.17 | 96 | 1004.5 |
| 20260507010057 | 9 | 310 | 8.0 | 16.1 | 0.00 | 1.17 | 1.17 | 96 | 1004.7 |
| 20260507005542 | 9 | 320 | 8.0 | 16.1 | 0.00 | 1.17 | 1.17 | 96 | 1004.5 |
| 20260507005041 | 9 | 329 | 6.4 | 14.5 | 0.00 | 1.17 | 1.17 | 96 | 1004.5 |
| 20260507004556 | 10 | 314 | 4.8 | 14.5 | 0.00 | 1.17 | 1.17 | 96 | 1004.5 |
| 20260507004041 | 10 | 329 | 4.8 | 14.5 | 0.00 | 1.17 | 1.17 | 96 | 1004.4 |
| 20260507003546 | 10 | 306 | 6.4 | 16.1 | 0.00 | 1.17 | 1.17 | 96 | 1004.4 |
| 20260507003057 | 10 | 324 | 6.4 | 16.1 | 0.00 | 1.17 | 1.17 | 96 | 1004.2 |
| 20260507002541 | 10 | 309 | 6.4 | 14.5 | 0.00 | 1.17 | 1.17 | 96 | 1004.2 |
| 20260507002042 | 10 | 1 | 4.8 | 12.9 | 0.00 | 1.17 | 1.17 | 96 | 1004.1 |
| 20260507001602 | 10 | 356 | 4.8 | 14.5 | 0.00 | 1.17 | 1.17 | 96 | 1003.9 |
| 20260507001041 | 10 | 310 | 4.8 | 14.5 | 0.00 | 1.17 | 1.17 | 96 | 1003.8 |
| 20260507000547 | 10 | 343 | 4.8 | 12.9 | 0.00 | 1.17 | 1.17 | 96 | 1003.9 |
| 20260507000055 | 10 | 60 | 4.8 | 9.7 | 0.03 | 1.17 | 1.17 | 96 | 1003.9 |
| 20260506235542 | 11 | 2 | 3.2 | 9.7 | 0.03 | 1.17 | 1.17 | 96 | 1003.8 |
| 20260506235043 | 11 | 311 | 3.2 | 9.7 | 0.03 | 1.17 | 1.17 | 96 | 1003.7 |
| 20260506234556 | 11 | 31 | 4.8 | 9.7 | 0.03 | 1.17 | 1.17 | 96 | 1003.5 |
| 20260506234041 | 11 | 32 | 4.8 | 11.3 | 0.03 | 1.17 | 1.17 | 96 | 1003.4 |
| 20260506233542 | 11 | 305 | 3.2 | 11.3 | 0.03 | 1.17 | 1.17 | 96 | 1003.5 |
| 20260506233109 | 11 | 321 | 4.8 | 11.3 | 0.03 | 1.17 | 1.17 | 96 | 1003.3 |
| 20260506232542 | 12 | 13 | 4.8 | 16.1 | 0.03 | 1.17 | 1.17 | 96 | 1003.4 |
| 20260506232043 | 12 | 309 | 8.0 | 17.7 | 0.05 | 1.17 | 1.17 | 96 | 1003.3 |
| 20260506231552 | 12 | 350 | 8.0 | 17.7 | 0.05 | 1.17 | 1.17 | 96 | 1003.3 |
| 20260506231041 | 12 | 296 | 8.0 | 16.1 | 0.05 | 1.17 | 1.17 | 96 | 1003.2 |
| 20260506230540 | 13 | 303 | 8.0 | 16.1 | 0.05 | 1.17 | 1.17 | 95 | 1003.1 |
| 20260506230059 | 13 | 333 | 9.7 | 16.1 | 0.05 | 1.14 | 1.14 | 96 | 1003.1 |
| 20260506225541 | 15 | 278 | 3.2 | 9.7 | 0.05 | 1.14 | 1.14 | 97 | 1003.0 |
| 20260506225040 | 15 | 324 | 1.6 | 4.8 | 0.08 | 1.14 | 1.14 | 97 | 1002.9 |
| 20260506224552 | 15 | 0 | 0.0 | 1.6 | 0.08 | 1.14 | 1.14 | 97 | 1002.8 |
| 20260506224043 | 15 | 0 | 0.0 | 1.6 | 0.13 | 1.14 | 1.14 | 97 | 1002.7 |
| 20260506223543 | 15 | 0 | 0.0 | 0.0 | 0.13 | 1.14 | 1.14 | 97 | 1002.9 |
| 20260506223053 | 15 | 0 | 0.0 | 1.6 | 0.15 | 1.14 | 1.14 | 97 | 1002.9 |
| 20260506222542 | 15 | 0 | 0.0 | 3.2 | 0.18 | 1.14 | 1.14 | 97 | 1002.8 |
| 20260506222041 | 15 | 145 | 0.0 | 3.2 | 0.18 | 1.12 | 1.12 | 97 | 1002.8 |
| 20260506221558 | 15 | 145 | 0.0 | 3.2 | 0.23 | 1.12 | 1.12 | 97 | 1002.7 |
| 20260506221041 | 15 | 0 | 0.0 | 4.8 | 0.23 | 1.12 | 1.12 | 97 | 1002.8 |
| 20260506220543 | 15 | 38 | 0.0 | 4.8 | 0.23 | 1.12 | 1.12 | 97 | 1002.9 |
| 20260506220054 | 15 | 0 | 0.0 | 3.2 | 0.20 | 1.09 | 1.09 | 97 | 1002.8 |
| 20260506215544 | 15 | 0 | 0.0 | 4.8 | 0.23 | 1.17 | 1.09 | 97 | 1002.9 |
| 20260506215044 | 15 | 77 | 0.0 | 4.8 | 0.23 | 1.14 | 1.07 | 97 | 1002.9 |
| 20260506214552 | 15 | 66 | 0.0 | 1.6 | 0.20 | 1.12 | 1.04 | 97 | 1002.9 |
| 20260506214041 | 15 | 114 | 0.0 | 1.6 | 0.20 | 1.09 | 1.02 | 97 | 1002.9 |
| 20260506213543 | 15 | 0 | 0.0 | 9.7 | 0.20 | 1.09 | 1.02 | 97 | 1002.9 |
| 20260506213111 | 15 | 0 | 0.0 | 9.7 | 0.23 | 1.07 | 0.99 | 96 | 1003.1 |
| 20260506212544 | 15 | 61 | 1.6 | 9.7 | 0.25 | 1.04 | 0.97 | 96 | 1003.0 |
| 20260506212041 | 15 | 148 | 0.0 | 8.0 | 0.28 | 1.02 | 0.94 | 96 | 1003.0 |
| 20260506211548 | 15 | 149 | 1.6 | 8.0 | 0.23 | 0.97 | 0.89 | 96 | 1003.1 |
| 20260506211043 | 15 | 142 | 1.6 | 8.0 | 0.25 | 0.97 | 0.89 | 97 | 1003.1 |
| 20260506210544 | 15 | 0 | 1.6 | 9.7 | 0.28 | 0.97 | 0.89 | 96 | 1003.1 |
| 20260506210056 | 15 | 171 | 0.0 | 9.7 | 0.28 | 0.97 | 0.89 | 96 | 1003.2 |
| 20260506205544 | 15 | 155 | 1.6 | 4.8 | 0.25 | 0.94 | 0.86 | 96 | 1003.3 |
| 20260506205041 | 15 | 135 | 0.0 | 6.4 | 0.23 | 0.91 | 0.84 | 96 | 1003.4 |
| 20260506204551 | 15 | 146 | 1.6 | 6.4 | 0.25 | 0.91 | 0.84 | 96 | 1003.4 |
| 20260506204041 | 15 | 157 | 0.0 | 6.4 | 0.23 | 0.89 | 0.81 | 96 | 1003.4 |
| 20260506203541 | 15 | 0 | 0.0 | 6.4 | 0.25 | 0.89 | 0.81 | 96 | 1003.5 |
| 20260506203055 | 15 | 0 | 1.6 | 6.4 | 0.23 | 0.84 | 0.76 | 96 | 1003.5 |
| 20260506202545 | 15 | 128 | 0.0 | 6.4 | 0.15 | 0.76 | 0.69 | 96 | 1003.5 |
| 20260506202044 | 15 | 0 | 0.0 | 6.4 | 0.15 | 0.74 | 0.66 | 96 | 1003.6 |
| 20260506201553 | 15 | 157 | 1.6 | 8.0 | 0.18 | 0.74 | 0.66 | 96 | 1003.5 |
| 20260506201044 | 15 | 148 | 3.2 | 8.0 | 0.15 | 0.71 | 0.64 | 96 | 1003.6 |
| 20260506200544 | 15 | 128 | 1.6 | 9.7 | 0.13 | 0.69 | 0.61 | 96 | 1003.7 |
| 20260506200052 | 15 | 46 | 1.6 | 9.7 | 0.15 | 0.69 | 0.61 | 96 | 1003.6 |
| 20260506195543 | 15 | 139 | 1.6 | 6.4 | 0.15 | 0.69 | 0.61 | 96 | 1003.8 |
| 20260506195041 | 15 | 132 | 1.6 | 6.4 | 0.18 | 0.69 | 0.61 | 96 | 1003.8 |
| 20260506194555 | 15 | 0 | 1.6 | 6.4 | 0.15 | 0.66 | 0.58 | 96 | 1003.8 |
| 20260506194043 | 15 | 135 | 0.0 | 6.4 | 0.18 | 0.66 | 0.58 | 96 | 1003.9 |
| 20260506193542 | 15 | 129 | 0.0 | 6.4 | 0.15 | 0.64 | 0.56 | 96 | 1004.0 |
| 20260506193103 | 15 | 70 | 1.6 | 6.4 | 0.15 | 0.61 | 0.53 | 96 | 1004.0 |